www.pogodaiklimat.ru
ПОГОДА в Аэропорту Фуаамоту
Время
(UTC), дата
00 11.01
03 11.01
06 11.01
12 11.01
15 11.01
18 11.01
21 11.01
00 12.01
03 12.01
06 12.01
12 12.01
15 12.01
18 12.01
21 12.01
00 13.01
03 13.01
06 13.01
12 13.01
15 13.01
18 13.01
21 13.01
00 14.01
03 14.01
06 14.01
12 14.01
15 14.01
18 14.01
21 14.01
00 15.01
03 15.01
06 15.01
12 15.01
15 15.01
18 15.01
21 15.01
00 16.01
03 16.01
06 16.01
12 16.01
15 16.01
18 16.01
21 16.01
00 17.01
03 17.01
06 17.01
12 17.01
15 17.01
18 17.01
Ветер
(напр.,м/с)
Видим. Явления Облачность Т
(С)
Тd
(С)
f
(%)
Тe
(С)
Тes
(С)
Комфортность P
(гПа)
Po
(гПа)
Тmin
(С)
Tmax
(С)
R
(мм)
R24
(мм)
S
(см)
ЮВ 5 20 км в посл. час ливневой дождь 5/3 540 м
[Cu med, cong Ci fib]
+29.3 +24.9 77 +42 +50 опасность
перегрева
1012.5 1008.2 +23.9 0.2 0.2
В 5 20 км 6/6
[Cu med, cong Cs]
+28.7 +23.8 75 +40 +42 очень
душно
1011.0 1006.7
В 3 20 км 9/3 500 м
[Cu med, cong Cs]
+27.3 +24.2 83 +38 +38 очень
душно
1010.9 1006.5
В 3 20 км {ливн. осадки} 9/3 450 м
[Cu med, cong Ac trans Cs]
+26.1 +23.9 88 +36 +36 очень
душно
1011.3 1006.9 +30.6 1
В 4 20 км 9/3 270 м
[St Cc]
+25.7 +23.5 88 +35 +35 очень
душно
1009.9 1005.5
В 3 20 км 9/1 240 м
[St Ac trans Cc]
+25.8 +23.5 87 +35 +35 очень
душно
1010.7 1006.3
В 5 20 км 5/3 480 м
[Cu med, cong Cs]
+28.2 +24.1 78 +39 +44 очень
душно
1011.0 1006.7
В 4 20 км 6/4 500 м
[Cu med, cong Cs]
+29.3 +24.6 76 +42 +50 опасность
перегрева
1010.3 1006.0 +24.8 1 1.3
В 4 20 км 6/3 500 м
[Cu med, cong Cs]
+28.8 +24.5 78 +41 +46 опасность
перегрева
1009.2 1004.9
В 2 20 км 9/4 480 м
[Cu med, cong Ac und]
+27.1 +23.9 83 +37 +37 очень
душно
1009.9 1005.5
В 3 20 км 9/3 450 м
[Cu med, cong Ac trans]
+25.8 +23.9 89 +35 +35 очень
душно
1010.6 1006.2 +29.8
В 2 20 км в посл. час ливневой дождь 9/5 300 м
[Frnb Ac trans]
+25.4 +24.1 93 +35 +35 очень
душно
1009.7 1005.3
В 3 20 км {ливн. осадки} 9/3 270 м
[Frnb Ac trans Cs]
+25.9 +24.0 89 +36 +36 очень
душно
1010.6 1006.2 0.0
В 4 20 км 5/1 480 м
[Cu med, cong Ac trans]
+29.5 +25.9 81 +44 +50 опасность
перегрева
1011.0 1006.7
В 4 20 км 8/3 300 м
[Frnb Ac trans]
+28.3 +24.9 82 +41 +46 опасность
перегрева
1010.8 1006.5 +25.1
В 5 20 км 9/9 300 м
[Cu Sc]
+28.7 +24.9 80 +41 +42 опасность
перегрева
1009.6 1005.3
В 4 20 км слаб. ливневой дождь 8/4 480 м
[Cu Sc Ac As]
+26.7 +24.6 88 +38 +38 очень
душно
1009.9 1005.5 0.0
В 3 20 км 5/3 480 м
[Cu med, cong Ac As]
+25.5 +23.6 89 +35 +35 очень
душно
1010.0 1005.6 +30.0 0.0
В 3 20 км 1/1 480 м
[Cu med, cong]
+25.2 +23.5 90 +34 +34 очень
душно
1009.2 1004.8
В 3 20 км 3/3 480 м
[Cu med, cong]
+25.7 +23.7 89 +35 +36 очень
душно
1010.1 1005.7
В 4 20 км 3/3 480 м
[Cu med, cong]
+29.5 +25.3 78 +43 +49 опасность
перегрева
1009.9 1005.6
В 4 20 км 3/3 480 м
[Cu med, cong]
+30.1 +24.9 74 +43 +55 опасность
перегрева
1008.8 1004.5 +24.9
В 4 20 км 3/3 500 м
[Cu hum]
+29.6 +24.8 75 +42 +48 опасность
перегрева
1007.9 1003.6
В 3 20 км 3/3 500 м
[Cu med, cong Ci fib]
+28.2 +24.4 80 +40 +40 очень
душно
1008.5 1004.2
В 2 20 км 3/3 480 м
[Cu med, cong]
+25.7 +24.4 93 +36 +36 очень
душно
1008.9 1004.5 +30.5
В 3 20 км {ливн. осадки} 8/4 270 м
[Frnb Ac As]
+25.5 +23.8 90 +35 +35 очень
душно
1007.1 1002.7
В 3 20 км 8/8 300 м
[Cu Sc]
+26.0 +23.8 88 +36 +36 очень
душно
1007.8 1003.4 0.2
В 4 20 км 8/8 300 м
[Cu Sc]
+28.0 +24.4 81 +39 +42 очень
душно
1007.7 1003.4
В 5 20 км {ливн. осадки} 6/6 480 м
[Cu Sc]
+29.1 +25.0 79 +42 +47 опасность
перегрева
1006.9 1002.6 +24.7 1 0.2
В 6 20 км 4/4 480 м
[Cu med, cong]
+28.8 +24.2 76 +40 +43 очень
душно
1005.8 1001.5
В 3 20 км 6/3 480 м
[St Ac trans Ci fib]
+27.6 +24.6 84 +39 +39 очень
душно
1006.0 1001.7
В 3 20 км 4/3 480 м
[Cu med, cong Cs]
+25.7 +24.4 93 +36 +36 очень
душно
1005.9 1001.5 +30.1
20 км н/о +26.2 +24.5 90 +37 +37 очень
душно
1004.4 1000.1
В 3 20 км в посл. час ливневой дождь 8/4 270 м
[Frnb Ac trans]
+25.9 +24.5 92 +36 +37 очень
душно
1005.0 1000.6 0.0
В 4 20 км 5/3 270 м
[Frnb Ac trans]
+30.0 +26.3 81 +46 +52 опасность
перегрева
1005.1 1000.8
В 5 20 км 5/3 270 м
[Frnb Ac trans]
+29.6 +25.5 79 +44 +50 опасность
перегрева
1004.3 1000.0 +25.4 1 1.4
В 5 20 км 8/3 500 м
[Cu med, cong Ac trans]
+29.2 +25.0 78 +42 +44 опасность
перегрева
1003.2 998.9
В 4 20 км 9/5 480 м
[Cu Sc Ac trans]
+27.4 +24.4 84 +39 +39 очень
душно
1003.2 998.9
В 3 20 км {морось} 10/5 300 м
[Frnb Ac As]
+26.5 +25.2 93 +38 +38 очень
душно
1003.5 999.2 +30.6 0.2
В 3 20 км слаб. ливневой дождь {морось} 10/6 240 м
[Frnb As op]
+26.2 +24.8 92 +37 +37 очень
душно
1002.1 997.8
В 3 20 км слаб. дождь 10/4 150 м
[Frnb As op]
+25.8 +25.1 96 +37 +37 очень
душно
1002.6 998.3 0.2
В 5 20 км слаб. морось {дождь} 9/5 240 м
[Frnb Ac As]
+28.0 +26.2 90 +42 +44 опасность
перегрева
1003.0 998.7
В 5 20 км {ливн. осадки} 9/5 210 м
[Frnb As trans]
+28.9 +26.5 87 +44 +47 опасность
перегрева
1001.5 997.2 +25.2 0.3 2.0
В 5 20 км 9/3 240 м
[Frnb As trans]
+28.1 +25.6 86 +41 +43 опасность
перегрева
999.9 995.6
В 4 4000 м слаб. дождь 10/8 210 м
[Frnb As trans]
+25.5 +24.8 96 +36 +36 очень
душно
1000.1 995.8 629
СВ 2 10 км слаб. дождь 10/8 180 м
[Frnb As op]
+25.0 +24.7 98 +35 +35 очень
душно
999.2 994.9 +29.5 77
СВ 2 20 км в посл. час дождь 10/8 180 м
[Frnb As op]
+25.7 +25.4 98 +37 +37 очень
душно
996.9 992.6
В 2 20 км в посл. час дождь 9/6 150 м
[Frnb As trans]
+26.1 +25.8 98 +38 +39 очень
душно
996.6 992.3 10
Местоположение метеостанции Аэропорт Фуаамоту (Тонга): широта -21.24 долгота -175.15 высота над уровнем моря 38 м.
В архиве по умолчанию представлена погода в Аэропорту Фуаамоту за последнюю неделю. Архивные данные за месяц целиком и за предыдущие месяцы, начиная с января 2011 года, Вы можете получить, выбрав интересующий диапазон дат из раскрывающегося списка и нажав кнопку "Найти!".
*Определитесь, кто Вы:
Внимание! Время в таблицах - всемирное. Для получения местного времени необходимо прибавить поправку, которая равна -11 ч.
Смотрите также архив погоды в соседних городах и на ближайших метеорологических станциях:
Партнеры нашего сайта:      
Пояснения к столбцам:
  • Ветер - указаны скорость ветра в м/с - средняя за 10 мин, порывы в срок и между сроками (в фигурных скобках) и направление, откуда дует ветер: С - северный,
  • СВ - северо-восточный, В - восточный, ЮВ - юго-восточный, Ю - южный, ЮЗ - юго-западный, З - западный, СЗ - северо-западный.
  • Видимость - горизонтальная дальность видимости в метрах или километрах. При видимости от 1 до 10 км при отсутствии осадков обычно наблюдается дымка, при ухудшении видимости до 1 км и менее - туман. В сухую погоду видимость может ухудшаться дымом, пылью или мглою.
  • Явления - указаны атмосферные явления, наблюдавшиеся в срок или в последний час перед сроком; фигурными скобками обозначены явления, наблюдавшиеся между сроками (за 1-3 часа до срока); квадратными скобками обозначены град или гололедные отложения с указанием их диаметра в мм.
  • Облачность - указаны через наклонную черту общая и нижняя облачность в баллах и высота нижней границы облаков в метрах; квадратными скобками обозначены формы облаков: Ci - перистые, Cs - перисто-слоистые, Cc - перисто-кучевые, Ac - высококучевые, As - высокослоистые, Sc - слоисто-кучевые, Ns - слоисто-дождевые, Cu - кучевые, Cb - кучево-дождевые. Подробнее классификацию облаков см. в Атласе облаков (PDF).
  • T - Температура воздуха - температура, измеренная на высоте 2 м над землей.
  • Td - Температура точки росы - температура, при понижении до которой содержащийся в воздухе водяной пар достигнет насыщения.
  • f - Относительная влажность воздуха - влажноcть воздуха, измеренная на высоте 2 м над землей.
  • Te - Эффективная температура - температура, которую ощущает одетый по сезону человек в тени. Характеристика душности погоды. При расчете учитывается влияние влажности воздуха и скорости ветра на теплоощущения человека.
  • Tes - Эффективная температура на солнце - температура, которую ощущает человек, с поправкой на солнечный нагрев. Характеристика знойности погоды. Зависит от высоты солнца над горизонтом, облачности и скорости ветра. Ночью, в пасмурную погоду, а также при ветре 12 м/с и более поправка равна нулю.
  • P - Атмосферное давление - приведенное к уровню моря атмосферное давление.
  • Po - Атмосферное давление - измеренное на уровне метеостанции атмосферное давление.
  • Tmin - Минимальная температура - минимум температуры воздуха на высоте 2 м над землей.
  • Tmax - Максимальная температура - максимум температуры воздуха на высоте 2 м над землей.
  • R - Количество осадков - Количество выпавших осадков за период времени, мм. При наведении курсора мыши на число - период времени, за который выпало указанное количество осадков.
  • R24 - Количество осадков - Количество выпавших осадков за 24 часа, мм.
  • S - Снежный покров - Высота снежного покрова, см. При наведении курсора мыши на число - состояние снежного покрова и степень покрытия местности в баллах.